| time (UTC) | temp F | wind direction | speed MPH | gust MPH | rain 1hr in | rain 24hr in | rain mn in | humidity % | barometer mb |
| 20260504110555 | 48 | 360 | 8.0 | 15.0 | 0.00 | 0.01 | 0.01 | 67 | 1006.8 |
| 20260504100553 | 48 | 223 | 10.0 | 15.0 | 0.01 | 0.01 | 0.01 | 66 | 1006.8 |
| 20260504081549 | 47 | 360 | 9.0 | 14.0 | 0.00 | 0.00 | 0.00 | 65 | 1007.8 |
| 20260504081049 | 47 | 360 | 8.0 | 14.0 | 0.00 | 0.00 | 0.00 | 66 | 1007.9 |
| 20260504080547 | 47 | 360 | 8.0 | 13.0 | 0.00 | 0.00 | 0.00 | 66 | 1008.0 |
| 20260504050528 | 47 | 207 | 7.0 | 14.0 | 0.00 | 0.00 | 0.00 | 62 | 1010.0 |
| 20260504045026 | 48 | 219 | 8.0 | 17.0 | 0.00 | 0.00 | 0.00 | 61 | 1010.1 |
| 20260504044527 | 48 | 244 | 8.0 | 16.0 | 0.00 | 0.00 | 0.00 | 61 | 1010.1 |
| 20260504044026 | 48 | 196 | 8.0 | 15.0 | 0.00 | 0.00 | 0.00 | 61 | 1010.1 |
| 20260504043526 | 48 | 223 | 7.0 | 16.0 | 0.00 | 0.00 | 0.00 | 60 | 1010.2 |
| 20260504043026 | 48 | 207 | 9.0 | 15.0 | 0.00 | 0.00 | 0.00 | 61 | 1010.1 |
| 20260504042526 | 48 | 360 | 7.0 | 13.0 | 0.00 | 0.00 | 0.00 | 61 | 1010.1 |
| 20260504042028 | 48 | 194 | 7.0 | 13.0 | 0.00 | 0.00 | 0.00 | 61 | 1010.1 |
| 20260504041528 | 48 | 360 | 7.0 | 13.0 | 0.00 | 0.00 | 0.00 | 61 | 1010.1 |
| 20260504041025 | 48 | 196 | 9.0 | 13.0 | 0.00 | 0.00 | 0.00 | 60 | 1010.1 |
| 20260504040529 | 48 | 360 | 7.0 | 13.0 | 0.00 | 0.00 | 0.00 | 60 | 1010.2 |
| 20260504040025 | 48 | 360 | 8.0 | 13.0 | 0.00 | 0.00 | 0.00 | 60 | 1010.2 |
| 20260504035024 | 48 | 360 | 7.0 | 16.0 | 0.00 | 0.00 | 0.00 | 60 | 1010.3 |
| 20260504034525 | 48 | 360 | 8.0 | 13.0 | 0.00 | 0.00 | 0.00 | 60 | 1010.3 |
| 20260504034025 | 48 | 195 | 7.0 | 13.0 | 0.00 | 0.00 | 0.00 | 60 | 1010.3 |
| 20260504033527 | 48 | 196 | 7.0 | 15.0 | 0.00 | 0.00 | 0.00 | 60 | 1010.3 |
| 20260504033025 | 48 | 360 | 8.0 | 15.0 | 0.00 | 0.00 | 0.00 | 59 | 1010.4 |
| 20260504032523 | 49 | 360 | 7.0 | 13.0 | 0.00 | 0.00 | 0.00 | 59 | 1010.5 |
| 20260504032024 | 49 | 206 | 7.0 | 16.0 | 0.00 | 0.00 | 0.00 | 59 | 1010.5 |
| 20260504031524 | 49 | 360 | 9.0 | 16.0 | 0.00 | 0.00 | 0.00 | 58 | 1010.5 |
| 20260504031023 | 49 | 200 | 6.0 | 11.0 | 0.00 | 0.00 | 0.00 | 59 | 1010.6 |
| 20260504030523 | 49 | 360 | 8.0 | 12.0 | 0.00 | 0.00 | 0.00 | 59 | 1010.5 |
| 20260504030035 | 49 | 198 | 8.0 | 11.0 | 0.00 | 0.00 | 0.00 | 58 | 1010.6 |
| 20260504025022 | 49 | 360 | 7.0 | 11.0 | 0.00 | 0.00 | 0.00 | 58 | 1010.6 |
| 20260504024521 | 49 | 207 | 7.0 | 10.0 | 0.00 | 0.00 | 0.00 | 58 | 1010.6 |
| 20260504024024 | 49 | 360 | 7.0 | 10.0 | 0.00 | 0.00 | 0.00 | 58 | 1010.6 |
| 20260504023522 | 49 | 202 | 6.0 | 9.0 | 0.00 | 0.00 | 0.00 | 58 | 1010.6 |
| 20260504023022 | 49 | 197 | 7.0 | 11.0 | 0.00 | 0.00 | 0.00 | 57 | 1010.6 |
| 20260504022521 | 49 | 204 | 7.0 | 12.0 | 0.00 | 0.00 | 0.00 | 57 | 1010.7 |
| 20260504022025 | 50 | 211 | 7.0 | 12.0 | 0.00 | 0.00 | 0.00 | 57 | 1010.7 |
| 20260504021526 | 50 | 197 | 7.0 | 11.0 | 0.00 | 0.00 | 0.00 | 57 | 1010.7 |
| 20260504021020 | 49 | 213 | 6.0 | 10.0 | 0.00 | 0.00 | 0.00 | 57 | 1010.7 |
| 20260504020520 | 50 | 200 | 6.0 | 9.0 | 0.00 | 0.00 | 0.00 | 57 | 1010.7 |
| 20260504020020 | 50 | 204 | 7.0 | 10.0 | 0.00 | 0.00 | 0.00 | 57 | 1010.7 |
| 20260504015024 | 50 | 198 | 6.0 | 12.0 | 0.00 | 0.00 | 0.00 | 56 | 1010.6 |
| 20260504014521 | 50 | 218 | 7.0 | 9.0 | 0.00 | 0.00 | 0.00 | 56 | 1010.7 |
| 20260504014021 | 50 | 215 | 7.0 | 10.0 | 0.00 | 0.00 | 0.00 | 56 | 1010.6 |
| 20260504013523 | 50 | 360 | 6.0 | 10.0 | 0.00 | 0.00 | 0.00 | 56 | 1010.6 |
| 20260504013021 | 50 | 198 | 6.0 | 10.0 | 0.00 | 0.00 | 0.00 | 55 | 1010.6 |
| 20260504012520 | 50 | 360 | 5.0 | 8.0 | 0.00 | 0.00 | 0.00 | 56 | 1010.5 |
| 20260504012021 | 51 | 196 | 5.0 | 9.0 | 0.00 | 0.00 | 0.00 | 55 | 1010.5 |
| 20260504011519 | 51 | 360 | 5.0 | 9.0 | 0.00 | 0.00 | 0.00 | 54 | 1010.5 |
| 20260504011019 | 51 | 194 | 5.0 | 8.0 | 0.00 | 0.00 | 0.00 | 54 | 1010.6 |
| 20260504010518 | 52 | 211 | 5.0 | 14.0 | 0.00 | 0.00 | 0.00 | 53 | 1010.6 |
| 20260504010021 | 52 | 209 | 6.0 | 14.0 | 0.00 | 0.00 | 0.00 | 52 | 1010.6 |
| 20260504005018 | 52 | 203 | 6.0 | 13.0 | 0.00 | 0.00 | 0.00 | 52 | 1010.5 |
| 20260504004522 | 52 | 360 | 7.0 | 13.0 | 0.00 | 0.00 | 0.00 | 52 | 1010.5 |
| 20260504004017 | 52 | 236 | 9.0 | 13.0 | 0.00 | 0.00 | 0.00 | 51 | 1010.5 |
| 20260504003516 | 52 | 225 | 4.0 | 16.0 | 0.00 | 0.00 | 0.00 | 51 | 1010.5 |
| 20260504003017 | 53 | 246 | 8.0 | 16.0 | 0.00 | 0.00 | 0.00 | 51 | 1010.5 |
| 20260504002516 | 53 | 213 | 6.0 | 12.0 | 0.00 | 0.00 | 0.00 | 51 | 1010.6 |
| 20260504002016 | 53 | 252 | 7.0 | 14.0 | 0.00 | 0.00 | 0.00 | 50 | 1010.5 |
| 20260504001517 | 53 | 223 | 8.0 | 14.0 | 0.00 | 0.00 | 0.00 | 50 | 1010.4 |
| 20260504001016 | 53 | 222 | 7.0 | 14.0 | 0.00 | 0.00 | 0.00 | 50 | 1010.5 |
| 20260504000516 | 53 | 243 | 7.0 | 13.0 | 0.00 | 0.00 | 0.00 | 49 | 1010.4 |
| 20260504000016 | 53 | 229 | 8.0 | 13.0 | 0.00 | 0.00 | 0.00 | 49 | 1010.4 |
| 20260503235015 | 54 | 223 | 7.0 | 16.0 | 0.00 | 0.00 | 0.00 | 49 | 1010.5 |
| 20260503234526 | 54 | 230 | 7.0 | 16.0 | 0.00 | 0.00 | 0.00 | 48 | 1010.5 |
| 20260503234015 | 54 | 227 | 9.0 | 16.0 | 0.00 | 0.00 | 0.00 | 48 | 1010.5 |
| 20260503233514 | 54 | 207 | 8.0 | 15.0 | 0.00 | 0.00 | 0.00 | 49 | 1010.6 |
| 20260503233014 | 54 | 272 | 5.0 | 15.0 | 0.00 | 0.00 | 0.00 | 48 | 1010.5 |
| 20260503232514 | 54 | 249 | 7.0 | 20.0 | 0.00 | 0.00 | 0.00 | 48 | 1010.6 |
| 20260503232013 | 54 | 226 | 7.0 | 20.0 | 0.00 | 0.00 | 0.00 | 47 | 1010.5 |
| 20260503231514 | 54 | 265 | 11.0 | 18.0 | 0.00 | 0.00 | 0.00 | 47 | 1010.5 |
| 20260503231017 | 54 | 250 | 9.0 | 15.0 | 0.00 | 0.00 | 0.00 | 48 | 1010.6 |
| 20260503230516 | 54 | 234 | 6.0 | 12.0 | 0.00 | 0.00 | 0.00 | 48 | 1010.6 |
| 20260503230013 | 54 | 252 | 9.0 | 22.0 | 0.00 | 0.00 | 0.00 | 47 | 1010.6 |
| 20260503225018 | 54 | 225 | 8.0 | 15.0 | 0.00 | 0.00 | 0.00 | 47 | 1010.6 |
| 20260503224515 | 54 | 244 | 8.0 | 17.0 | 0.00 | 0.00 | 0.00 | 47 | 1010.6 |
| 20260503224015 | 54 | 224 | 11.0 | 17.0 | 0.00 | 0.00 | 0.00 | 46 | 1010.6 |
| 20260503223521 | 54 | 225 | 9.0 | 15.0 | 0.00 | 0.00 | 0.00 | 47 | 1010.7 |
| 20260503223014 | 54 | 244 | 6.0 | 14.0 | 0.00 | 0.00 | 0.00 | 46 | 1010.7 |
| 20260503222514 | 54 | 236 | 8.0 | 15.0 | 0.00 | 0.00 | 0.00 | 46 | 1010.7 |
| 20260503222017 | 54 | 257 | 8.0 | 15.0 | 0.00 | 0.00 | 0.00 | 46 | 1010.7 |
| 20260503221513 | 54 | 252 | 6.0 | 11.0 | 0.00 | 0.00 | 0.00 | 47 | 1010.7 |
| 20260503221015 | 54 | 213 | 6.0 | 12.0 | 0.00 | 0.00 | 0.00 | 47 | 1010.7 |
| 20260503220515 | 54 | 252 | 8.0 | 20.0 | 0.00 | 0.00 | 0.00 | 46 | 1010.7 |
| 20260503220034 | 54 | 360 | 10.0 | 20.0 | 0.00 | 0.00 | 0.00 | 46 | 1010.7 |
| 20260503215013 | 55 | 249 | 9.0 | 17.0 | 0.00 | 0.00 | 0.00 | 46 | 1010.7 |
| 20260503214511 | 55 | 210 | 5.0 | 17.0 | 0.00 | 0.00 | 0.00 | 46 | 1010.7 |
| 20260503214011 | 55 | 236 | 8.0 | 18.0 | 0.00 | 0.00 | 0.00 | 46 | 1010.7 |
| 20260503213514 | 55 | 213 | 10.0 | 18.0 | 0.00 | 0.00 | 0.00 | 45 | 1010.6 |
| 20260503213013 | 55 | 212 | 12.0 | 21.0 | 0.00 | 0.00 | 0.00 | 45 | 1010.7 |
| 20260503212512 | 56 | 205 | 12.0 | 21.0 | 0.00 | 0.00 | 0.00 | 44 | 1010.5 |
| 20260503212011 | 56 | 204 | 7.0 | 18.0 | 0.00 | 0.00 | 0.00 | 45 | 1010.5 |
| 20260503211512 | 56 | 260 | 12.0 | 18.0 | 0.00 | 0.00 | 0.00 | 43 | 1010.5 |
| 20260503211011 | 55 | 229 | 9.0 | 16.0 | 0.00 | 0.00 | 0.00 | 43 | 1010.5 |
| 20260503210510 | 56 | 223 | 9.0 | 16.0 | 0.00 | 0.00 | 0.00 | 42 | 1010.4 |
| 20260503210009 | 56 | 288 | 8.0 | 13.0 | 0.00 | 0.00 | 0.00 | 44 | 1010.5 |
| 20260503205011 | 55 | 257 | 8.0 | 21.0 | 0.00 | 0.00 | 0.00 | 43 | 1010.6 |
| 20260503204510 | 55 | 271 | 12.0 | 21.0 | 0.00 | 0.00 | 0.00 | 43 | 1010.7 |
| 20260503204014 | 55 | 229 | 9.0 | 20.0 | 0.00 | 0.00 | 0.00 | 41 | 1010.8 |
| 20260503203509 | 55 | 250 | 7.0 | 19.0 | 0.00 | 0.00 | 0.00 | 44 | 1010.7 |
| 20260503203020 | 56 | 254 | 10.0 | 18.0 | 0.00 | 0.00 | 0.00 | 42 | 1010.9 |
| 20260503202508 | 55 | 245 | 10.0 | 18.0 | 0.00 | 0.00 | 0.00 | 42 | 1010.9 |
| 20260503202008 | 55 | 251 | 6.0 | 18.0 | 0.00 | 0.00 | 0.00 | 43 | 1011.0 |
| 20260503201508 | 55 | 249 | 10.0 | 23.0 | 0.00 | 0.00 | 0.00 | 42 | 1011.0 |
| 20260503201011 | 56 | 246 | 9.0 | 16.0 | 0.00 | 0.00 | 0.00 | 42 | 1011.1 |
| 20260503200506 | 56 | 203 | 6.0 | 18.0 | 0.00 | 0.00 | 0.00 | 42 | 1011.1 |
| 20260503200005 | 56 | 250 | 10.0 | 19.0 | 0.00 | 0.00 | 0.00 | 42 | 1011.2 |
| 20260503195003 | 55 | 247 | 8.0 | 16.0 | 0.00 | 0.00 | 0.00 | 42 | 1011.4 |
| 20260503194503 | 55 | 245 | 9.0 | 20.0 | 0.00 | 0.00 | 0.00 | 43 | 1011.4 |
| 20260503194002 | 55 | 248 | 12.0 | 20.0 | 0.00 | 0.00 | 0.00 | 42 | 1011.4 |
| 20260503193500 | 55 | 232 | 7.0 | 17.0 | 0.00 | 0.00 | 0.00 | 44 | 1011.5 |
| 20260503193112 | 55 | 277 | 8.0 | 20.0 | 0.00 | 0.00 | 0.00 | 44 | 1011.6 |
| 20260503192600 | 55 | 244 | 11.0 | 20.0 | 0.00 | 0.00 | 0.00 | 46 | 1011.7 |
| 20260503192059 | 55 | 279 | 9.0 | 20.0 | 0.00 | 0.00 | 0.00 | 47 | 1011.7 |
| 20260503191608 | 54 | 198 | 12.0 | 21.0 | 0.00 | 0.00 | 0.00 | 46 | 1011.7 |
| 20260503191058 | 54 | 234 | 12.0 | 19.0 | 0.00 | 0.00 | 0.00 | 47 | 1011.9 |
| 20260503190557 | 54 | 293 | 7.0 | 18.0 | 0.00 | 0.00 | 0.00 | 44 | 1011.8 |
| 20260503190059 | 54 | 225 | 8.0 | 18.0 | 0.00 | 0.00 | 0.00 | 47 | 1012.0 |
| 20260503185100 | 54 | 294 | 10.0 | 17.0 | 0.00 | 0.00 | 0.00 | 45 | 1012.2 |
| 20260503184608 | 54 | 221 | 10.0 | 17.0 | 0.00 | 0.00 | 0.00 | 47 | 1012.2 |
| 20260503184055 | 54 | 269 | 6.0 | 15.0 | 0.00 | 0.00 | 0.00 | 47 | 1012.3 |
| 20260503183555 | 54 | 248 | 7.0 | 19.0 | 0.00 | 0.00 | 0.00 | 47 | 1012.3 |
| 20260503183108 | 54 | 261 | 11.0 | 20.0 | 0.00 | 0.00 | 0.00 | 46 | 1012.3 |
| 20260503182556 | 54 | 198 | 10.0 | 20.0 | 0.00 | 0.00 | 0.00 | 49 | 1012.5 |
| 20260503182053 | 52 | 245 | 13.0 | 20.0 | 0.00 | 0.00 | 0.00 | 47 | 1012.5 |
| 20260503181606 | 52 | 249 | 10.0 | 18.0 | 0.00 | 0.00 | 0.00 | 47 | 1012.6 |
| 20260503181051 | 52 | 236 | 7.0 | 20.0 | 0.00 | 0.00 | 0.00 | 50 | 1012.7 |
| 20260503180551 | 52 | 255 | 13.0 | 20.0 | 0.00 | 0.00 | 0.00 | 49 | 1012.7 |
| 20260503180050 | 52 | 265 | 10.0 | 27.0 | 0.00 | 0.00 | 0.00 | 48 | 1012.8 |
| 20260503175051 | 52 | 206 | 10.0 | 19.0 | 0.00 | 0.00 | 0.00 | 48 | 1012.9 |
| 20260503174548 | 52 | 237 | 10.0 | 18.0 | 0.00 | 0.00 | 0.00 | 50 | 1013.0 |
| 20260503174048 | 52 | 225 | 11.0 | 23.0 | 0.00 | 0.00 | 0.00 | 51 | 1013.0 |
| 20260503173547 | 52 | 199 | 13.0 | 22.0 | 0.00 | 0.00 | 0.00 | 49 | 1013.0 |
| 20260503173056 | 52 | 224 | 10.0 | 17.0 | 0.00 | 0.00 | 0.00 | 50 | 1013.1 |
| 20260503172546 | 51 | 231 | 6.0 | 15.0 | 0.00 | 0.00 | 0.00 | 52 | 1013.2 |
| 20260503172044 | 51 | 239 | 8.0 | 17.0 | 0.00 | 0.00 | 0.00 | 50 | 1013.3 |
| 20260503171544 | 51 | 243 | 11.0 | 17.0 | 0.00 | 0.00 | 0.00 | 50 | 1013.3 |
| 20260503171044 | 51 | 279 | 9.0 | 17.0 | 0.00 | 0.00 | 0.00 | 49 | 1013.4 |
| 20260503170543 | 51 | 286 | 11.0 | 17.0 | 0.00 | 0.00 | 0.00 | 50 | 1013.5 |
| 20260503150529 | 47 | 202 | 8.0 | 16.0 | 0.00 | 0.00 | 0.00 | 51 | 1014.4 |
| 20260503131013 | 40 | 275 | 4.0 | 9.0 | 0.00 | 0.00 | 0.00 | 78 | 1015.2 |
| 20260503130508 | 39 | 245 | 5.0 | 11.0 | 0.00 | 0.00 | 0.00 | 77 | 1015.1 |